Location: Walton
(43.6794°N, 81.3017°W)
Time: 18:46:26
(UTC+00:00)

Cosmos 2195 Rocket - Visible Passes

Search period start: 07 March 2026 00:00
Search period end: 17 March 2026 00:00
Orbit: 947 x 993 km, 82.9° (Epoch: 7 March)

Date Brightness Start Highest point End Pass type
(mag) Time Alt. Az. Time Alt. Az. Time Alt. Az.
7 Mar 4.4 00:13:34 10° S 00:19:34 65° E 00:25:37 10° NNE visible
7 Mar 6.9 02:00:58 10° WSW 02:05:23 20° WNW 02:09:49 10° NNW visible
7 Mar 5.4 11:07:09 10° N 11:13:16 56° ENE 11:19:25 10° SSE visible
8 Mar 4.7 00:37:11 10° SSW 00:43:16 75° W 00:49:24 10° N visible
8 Mar 7.5 02:27:38 10° W 02:29:41 12° WNW 02:31:43 10° NW visible
8 Mar 7.4 09:47:18 10° NNE 09:50:57 16° ENE 09:54:35 10° E visible
9 Mar 5.7 01:01:21 10° SSW 01:07:07 43° WNW 01:12:57 10° N visible
9 Mar 6.7 10:09:58 10° NNE 10:15:08 27° ENE 10:20:19 10° SE visible
10 Mar 6.6 01:26:10 10° SW 01:31:08 26° WNW 01:36:10 10° NNW visible
10 Mar 5.8 10:33:12 10° N 10:39:10 44° ENE 10:45:08 10° SSE visible
11 Mar 4.5 00:03:07 10° S 00:09:12 87° E 00:15:22 10° N visible
11 Mar 7.3 01:51:58 10° W 01:55:21 15° WNW 01:58:46 10° NNW visible
11 Mar 7.6 09:14:11 10° NE 09:16:39 12° ENE 09:19:07 10° E visible
11 Mar 4.8 10:56:45 10° N 11:03:01 76° E 11:09:18 10° SSE visible
12 Mar 5.3 00:27:02 10° SSW 00:33:00 55° WNW 00:39:01 10° N visible
12 Mar 7.0 09:36:16 10° NNE 09:40:56 21° ENE 09:45:35 10° ESE visible
13 Mar 6.3 00:51:33 10° SW 00:56:56 32° WNW 01:02:23 10° N visible
13 Mar 6.2 09:59:19 10° N 10:05:02 36° ENE 10:10:44 10° SE visible
14 Mar 7.2 01:16:50 10° WSW 01:21:04 19° WNW 01:25:20 10° NNW visible
14 Mar 5.2 10:22:44 10° N 10:28:57 60° E 10:35:10 10° SSE visible
14 Mar 4.9 23:52:49 10° SSW 23:58:53 70° W 00:05:02 10° N visible
15 Mar 7.7 01:43:56 10° WNW 01:45:23 11° WNW 01:46:50 10° NW visible
15 Mar 7.2 09:02:43 10° NNE 09:06:40 17° ENE 09:10:38 10° ESE visible
15 Mar 4.5 10:46:26 10° N 10:52:42 81° W 10:59:00 10° S visible
16 Mar 6.0 00:17:04 10° SW 00:22:46 40° WNW 00:28:32 10° N visible
16 Mar 6.5 09:25:31 10° NNE 09:30:51 29° ENE 09:36:12 10° SE visible
